FENGYUN 1C DEB, 30758

Orbit data source: Space-Track

FENGYUN 1C DEB, 30758 is space debris in SSO originally from a launch on Mon, 10 May 1999 UTC launched from the Taiyaun Space Center, China (TSC). Fengyun 1C debris stems from the Chinese weather satellite Fengyun-1C, which was intentionally destroyed by a Chinese anti-satellite missile in 2007. This event dramatically increased the amount of space debris, with thousands of trackable fragments posing hazards to satellites and human spaceflight. The Fengyun 1C debris cloud has become a focal point in discussions about space sustainability and the need for international regulations to prevent the creation of new debris.

Loading next visibility...
Identifier
30758, 1999-025ATU
Orbit
SSO
Country
Flag of CNCN / PRC
Related business
Manufacturer
Unknown
Mission
Spacecraft
Bus & Motor
Unknown
Mass
Unknown
Launch date (UTC)
1999-05-10 (27 years ago)
Launch vehicle
Unknown
Launch site
Taiyaun Space Center, China (TSC)
Object type
Payload
Rocket body
Debris
Shape & HBR
Unknown shape, 0.1 m
Radar Cross Section
Small (<0.1 m²)

Expand to show TLE details & history
Last TLE update: 12 hours ago

TLE from 12 hours ago
0 FENGYUN 1C DEB
1 30758U 99025ATU 26104.58355737  .00001114  00000-0  56550-3 0  9995
2 30758  99.0254 230.1037 0038822  15.9435 359.0887 14.17685584982312
Epoch: 2026-04-14T14:00Z
TLE epoch observation values (Epoch: 2026-04-14T14:00:19.356Z)
Latitude
14.80936°
Longitude
174.87129°
Altitude
807.383 km
Speed
7.465 km/s
True Right ascension
15h 10m 50s
True Declination
14° 43' 31"
Sunlit
Object was in full shadow at epoch
Visualization orbit readout
Latitude
Unknown
Longitude
Unknown
Altitude
Unknown
Speed
Unknown
Apparent Right ascension
Unknown
Apparent Declination
Unknown
Sunlit
N/A
Visualization observer readout
Local Sidereal Time
08:31:20
Azimuth
Unknown
Elevation
Unknown
Doppler factor
Unknown
Orbital elements
Apogee altitude
858.352 km
Perigee altitude
802.383 km
Semi-major axis
7,208.505 km
Eccentricity
0.00388
Inclination
99.0254°
RAAN
230.1037°
Arg. of periapsis
15.9435°
True anomaly
359.08159°
Mean anomaly
359.0887°
Eccentric anomaly
359.08515°
Mean motion
3.5463 °/min
Orbital period
101.51 mins
BSTAR
0.0005655
Loading maneuver chart data...
Computing Atmospheric mass density...

Documentation

Showing up to 5 results
|